FLT555 TNCM-TNCS

Flight info

Callsign FLT555
Flight time N/A
Altitude 2000
Route TFFJ
Aircraft C172/L-VGD/C

Departure

Time 2026-05-06 01:50
Airport Princess Juliana International Airport (TNCM)

Arrival

Time N/A
Airport Juancho E. Yrausquin Airport (TNCS)
Time Latitude Longitude Altitude Speed Heading
2026-05-06 01:38 18.04149 -63.11364 16 ft 0 kts 171°
2026-05-06 01:46 18.04146 -63.11363 16 ft 4 kts 166°
2026-05-06 01:46 18.04131 -63.11377 16 ft 3 kts 286°
2026-05-06 01:47 18.04136 -63.11382 16 ft 0 kts 336°
2026-05-06 01:47 18.04148 -63.11386 16 ft 3 kts 345°
2026-05-06 01:47 18.04164 -63.11390 16 ft 7 kts 333°
2026-05-06 01:47 18.04184 -63.11492 16 ft 23 kts 250°
2026-05-06 01:48 18.04089 -63.11632 16 ft 23 kts 218°
2026-05-06 01:48 18.03999 -63.11649 16 ft 9 kts 141°
2026-05-06 01:48 18.03990 -63.11619 16 ft 0 kts 80°
2026-05-06 01:48 18.03993 -63.11594 16 ft 20 kts 81°
2026-05-06 01:49 18.04048 -63.11267 24 ft 65 kts 77°
2026-05-06 01:49 18.04181 -63.10778 203 ft 72 kts 76°
2026-05-06 01:49 18.04308 -63.10262 351 ft 72 kts 73°
2026-05-06 01:49 18.04429 -63.09774 445 ft 74 kts 105°
2026-05-06 01:50 18.04003 -63.09465 575 ft 75 kts 126°
2026-05-06 01:50 18.03871 -63.08951 672 ft 79 kts 104°
2026-05-06 01:50 18.03361 -63.08654 704 ft 90 kts 156°
2026-05-06 01:50 18.03002 -63.08187 776 ft 90 kts 116°
2026-05-06 01:51 18.02646 -63.07610 624 ft 87 kts 125°
2026-05-06 01:51 18.02364 -63.07080 806 ft 80 kts 113°
2026-05-06 01:51 18.02026 -63.06560 967 ft 91 kts 125°
2026-05-06 01:51 18.01697 -63.05958 1015 ft 97 kts 113°
2026-05-06 01:52 18.01403 -63.05340 1190 ft 92 kts 113°
2026-05-06 01:52 18.01123 -63.04756 1378 ft 88 kts 114°
2026-05-06 01:52 18.00849 -63.04202 1539 ft 80 kts 115°
2026-05-06 01:52 18.00585 -63.03704 1764 ft 82 kts 113°
2026-05-06 01:53 18.00333 -63.03171 1957 ft 81 kts 114°
2026-05-06 01:53 18.00070 -63.02613 2019 ft 92 kts 114°
2026-05-06 01:53 17.99772 -63.01976 2025 ft 101 kts 114°
2026-05-06 01:53 17.99456 -63.01295 2026 ft 106 kts 114°
2026-05-06 01:54 17.99131 -63.00594 2022 ft 108 kts 114°
2026-05-06 01:54 17.98808 -62.99901 2020 ft 105 kts 115°
2026-05-06 01:54 17.98495 -62.99223 2018 ft 102 kts 115°
2026-05-06 01:54 17.98195 -62.98542 2026 ft 103 kts 115°
2026-05-06 01:55 17.97904 -62.97838 2019 ft 106 kts 114°
2026-05-06 01:55 17.97560 -62.97144 2030 ft 107 kts 121°
2026-05-06 01:55 17.97156 -62.96482 2016 ft 109 kts 122°
2026-05-06 01:55 17.96738 -62.95826 2007 ft 107 kts 122°
2026-05-06 01:56 17.96333 -62.95183 2005 ft 103 kts 121°
2026-05-06 01:56 17.95943 -62.94563 2006 ft 100 kts 122°
2026-05-06 01:56 17.95568 -62.93953 2007 ft 99 kts 121°
2026-05-06 01:56 17.95215 -62.93366 2001 ft 88 kts 122°
2026-05-06 01:57 17.94917 -62.92876 1982 ft 72 kts 122°
2026-05-06 01:57 17.94679 -62.92478 1985 ft 60 kts 121°
2026-05-06 01:57 17.94457 -62.92105 1844 ft 55 kts 122°
2026-05-06 01:57 17.94266 -62.91787 1671 ft 50 kts 122°
2026-05-06 01:58 17.94085 -62.91486 1495 ft 49 kts 121°
2026-05-06 01:58 17.93910 -62.91186 1334 ft 48 kts 123°
2026-05-06 01:58 17.93722 -62.90900 1153 ft 47 kts 124°
2026-05-06 01:58 17.93519 -62.90627 1001 ft 48 kts 129°
2026-05-06 01:59 17.93313 -62.90353 928 ft 47 kts 119°
2026-05-06 01:59 17.93103 -62.90057 964 ft 59 kts 127°
2026-05-06 01:59 17.92807 -62.89741 1055 ft 61 kts 135°
2026-05-06 01:59 17.92531 -62.89385 1041 ft 71 kts 124°
2026-05-06 02:00 17.92223 -62.88939 966 ft 77 kts 127°
2026-05-06 02:00 17.91912 -62.88460 913 ft 83 kts 121°
2026-05-06 02:00 17.91573 -62.87977 883 ft 79 kts 125°
2026-05-06 02:00 17.91219 -62.87496 730 ft 87 kts 124°
2026-05-06 02:01 17.90833 -62.87017 577 ft 83 kts 122°
2026-05-06 02:01 17.90545 -62.86539 478 ft 72 kts 106°
2026-05-06 02:01 17.90431 -62.86068 398 ft 63 kts 91°
2026-05-06 02:01 17.90404 -62.85612 331 ft 62 kts 88°
2026-05-06 02:02 17.90414 -62.85198 254 ft 53 kts 85°
2026-05-06 02:02 17.90469 -62.84822 157 ft 58 kts 55°
2026-05-06 02:02 17.90458 -62.84781 144 ft 17 kts 134°
2026-05-06 02:02 17.90449 -62.84534 41 ft 49 kts 87°
2026-05-06 02:03 17.90437 -62.84173 72 ft 51 kts 94°
2026-05-06 02:03 17.90395 -62.83757 190 ft 63 kts 102°
2026-05-06 02:03 17.90215 -62.83305 308 ft 70 kts 128°
2026-05-06 02:03 17.89818 -62.83021 458 ft 68 kts 140°
2026-05-06 02:04 17.89353 -62.82942 792 ft 72 kts 174°
2026-05-06 02:04 17.88857 -62.83124 1012 ft 85 kts 213°
2026-05-06 02:04 17.88425 -62.83655 1243 ft 100 kts 224°
2026-05-06 02:04 17.88040 -62.84273 1463 ft 103 kts 231°
2026-05-06 02:05 17.87725 -62.84959 1691 ft 104 kts 234°
2026-05-06 02:05 17.87384 -62.85627 1887 ft 106 kts 227°
2026-05-06 02:05 17.86862 -62.86150 2025 ft 108 kts 216°
2026-05-06 02:05 17.86269 -62.86723 2024 ft 121 kts 209°
2026-05-06 02:06 17.85584 -62.87252 2025 ft 130 kts 220°
2026-05-06 02:06 17.85076 -62.88078 2023 ft 135 kts 227°
2026-05-06 02:06 17.84539 -62.88870 2020 ft 131 kts 227°
2026-05-06 02:06 17.84033 -62.89654 2016 ft 127 kts 227°
2026-05-06 02:07 17.83545 -62.90427 2014 ft 129 kts 229°
2026-05-06 02:07 17.83036 -62.91214 2016 ft 131 kts 226°
2026-05-06 02:07 17.82525 -62.92020 2019 ft 132 kts 228°
2026-05-06 02:07 17.82009 -62.92804 2019 ft 129 kts 228°
2026-05-06 02:08 17.81490 -62.93587 2020 ft 132 kts 227°
2026-05-06 02:08 17.80956 -62.94406 2020 ft 139 kts 227°
2026-05-06 02:08 17.80439 -62.95261 2019 ft 138 kts 232°
2026-05-06 02:08 17.79991 -62.96123 2015 ft 134 kts 233°
2026-05-06 02:09 17.79540 -62.96965 2009 ft 132 kts 233°
2026-05-06 02:09 17.79077 -62.97792 2007 ft 131 kts 232°
2026-05-06 02:09 17.78614 -62.98618 2012 ft 132 kts 232°
2026-05-06 02:09 17.78299 -62.99171 2018 ft 134 kts 231°
2026-05-06 02:10 17.77678 -63.00292 2014 ft 133 kts 231°
2026-05-06 02:10 17.77377 -63.00849 2012 ft 132 kts 233°
2026-05-06 02:10 17.76927 -63.01676 2012 ft 129 kts 232°
2026-05-06 02:10 17.76476 -63.02482 2012 ft 128 kts 233°
2026-05-06 02:11 17.76021 -63.03290 2015 ft 130 kts 232°
2026-05-06 02:11 17.75580 -63.04131 2013 ft 132 kts 233°
2026-05-06 02:11 17.75109 -63.04972 2020 ft 134 kts 233°
2026-05-06 02:11 17.74623 -63.05812 2022 ft 138 kts 232°
2026-05-06 02:12 17.74150 -63.06681 2006 ft 135 kts 231°
2026-05-06 02:12 17.73682 -63.07527 2003 ft 131 kts 233°
2026-05-06 02:12 17.73219 -63.08344 2005 ft 131 kts 232°
2026-05-06 02:12 17.72764 -63.09159 2001 ft 128 kts 233°
2026-05-06 02:13 17.72302 -63.09950 2007 ft 127 kts 231°
2026-05-06 02:13 17.71852 -63.10745 2013 ft 127 kts 232°
2026-05-06 02:13 17.71393 -63.11557 2016 ft 130 kts 232°
2026-05-06 02:13 17.70933 -63.12365 2009 ft 131 kts 232°
2026-05-06 02:14 17.70382 -63.13149 1809 ft 134 kts 225°
2026-05-06 02:14 17.69774 -63.13873 1664 ft 130 kts 221°
2026-05-06 02:14 17.69181 -63.14584 1569 ft 128 kts 223°
2026-05-06 02:14 17.68630 -63.15293 1537 ft 123 kts 221°
2026-05-06 02:15 17.68034 -63.15927 1491 ft 120 kts 217°
2026-05-06 02:15 17.67411 -63.16511 1448 ft 120 kts 216°
2026-05-06 02:15 17.66788 -63.17096 1433 ft 121 kts 216°
2026-05-06 02:15 17.66168 -63.17717 1373 ft 123 kts 214°
2026-05-06 02:16 17.65553 -63.18322 1277 ft 118 kts 211°
2026-05-06 02:16 17.64960 -63.18893 1109 ft 111 kts 215°
2026-05-06 02:16 17.64424 -63.19449 907 ft 105 kts 223°
2026-05-06 02:16 17.64151 -63.20151 755 ft 107 kts 250°
2026-05-06 02:17 17.64131 -63.20947 419 ft 112 kts 277°
2026-05-06 02:17 17.64391 -63.21715 176 ft 104 kts 297°
2026-05-06 02:17 17.64652 -63.22345 149 ft 92 kts 290°
2026-05-06 02:17 17.65071 -63.22796 331 ft 85 kts 359°
2026-05-06 02:18 17.65525 -63.22618 531 ft 67 kts 72°
2026-05-06 02:18 17.65616 -63.22082 538 ft 82 kts 92°
2026-05-06 02:18 17.65595 -63.21455 648 ft 88 kts 98°
2026-05-06 02:18 17.65534 -63.20831 876 ft 83 kts 102°
2026-05-06 02:19 17.65451 -63.20232 1001 ft 85 kts 104°
2026-05-06 02:19 17.65275 -63.19637 1038 ft 78 kts 124°
2026-05-06 02:19 17.64754 -63.19459 922 ft 97 kts 192°
2026-05-06 02:19 17.64343 -63.20091 673 ft 114 kts 250°
2026-05-06 02:20 17.64325 -63.21572 212 ft 94 kts 293°
2026-05-06 02:20 17.64566 -63.22161 138 ft 70 kts 286°